Location: Newark
(37.0133°S, 81.3511°E)
Time: 12:42:16
(UTC+00:00)

N. Korean satellite - Visible Passes

Search period start: 17 January 2021 00:00
Search period end: 27 January 2021 00:00
Orbit: 453 x 502 km, 97.2° (Epoch: 16 January)

Date Brightness Start Highest point End Pass type
(mag) Time Alt. Az. Time Alt. Az. Time Alt. Az.
17 Jan 8.4 22:50:30 10° NE 22:53:38 34° ESE 22:56:50 10° S visible
18 Jan 9.7 22:25:05 10° ENE 22:27:15 16° ESE 22:29:27 10° SSE visible
20 Jan 7.3 23:03:48 10° NNE 23:07:09 55° ESE 23:10:36 10° S visible
21 Jan 9.2 22:37:55 10° NE 22:40:43 24° ESE 22:43:35 10° SSE visible
22 Jan 10.1 22:13:18 10° E 22:14:23 11° ESE 22:15:28 10° SE visible
24 Jan 8.3 22:51:00 10° NE 22:54:12 36° ESE 22:57:28 10° S visible
25 Jan 9.7 22:25:31 10° ENE 22:27:48 17° ESE 22:30:06 10° SSE visible
